Weather History for Caribou, ME

Change the Weather History Date:

Tuesday, July 23, 2013

  Actual Average Record
Temperature  
Mean Temperature 63 °F 66 °F  
Max Temperature 67 °F 76 °F 95 °F (1952)
Min Temperature 58 °F 56 °F 42 °F (1997)
Degree Days  
Heating Degree Days 2 2  
Month to date heating degree days 14 48  
Since 1 June heating degree days 192 213  
Since 1 July heating degree days 14 48  
Cooling Degree Days 0 3  
Month to date cooling degree days 118 55  
Year to date cooling degree days 149 94  
Since 1 June cooling degree days 141 89  
Growing Degree Days 12 (Base 50)    
Moisture  
Dew Point 60 °F    
Average Humidity 83    
Maximum Humidity 93    
Minimum Humidity 72    
Precipitation  
Precipitation 0.60 in 0.13 in 1.28 in (1990)
Month to date precipitation 5.67 3.08  
Year to date precipitation 25.75 19.98  
Snow  
Snow 0.00 in 0.00 in 0.00 in (2002)
Month to date snowfall 0.0 0.0  
Since 1 June snowfall 0.0 0.0  
Since 1 July snowfall 0.0 0.0  
Snow Depth 0.00 in    
Sea Level Pressure  
Sea Level Pressure 29.68 in    
Wind  
Wind Speed 6 mph (ESE)    
Max Wind Speed 14 mph    
Max Gust Speed 20 mph    
Visibility 8 miles    
Events Rain    
T = Trace of Precipitation, MM = Missing Value Source: NWS Daily Summary

Daily Weather History Graph

Daily Weather History Graph

Search for Another Location

Airport:

Trip Planner

Search our weather history database for the weather conditions in past years. The results will help you decide how hot, cold, wet, or windy it might be!

Date:

Astronomy

Jul. 23, 2013 Rise Set
Actual Time 5:01 AM EDT 8:15 PM EDT
Civil Twilight 4:24 AM EDT 8:51 PM EDT
Nautical Twilight 3:36 AM EDT 9:39 PM EDT
Astronomical Twilight 2:36 AM EDT 10:38 PM EDT
Moon 8:30 PM EDT (7/23) 6:13 AM EDT (7/23)
Length of Visible Light 16h 26m
Length of Day
15h 13m
Full, 99% of the Moon is Illuminated
Jul 23
Full
Jul 29
Last Quarter
Aug 6
New
Aug 14
First Quarter
Aug 20
Full

Hourly Weather History & Observations

Time (EDT) Temp. Dew Point Humidity Pressure Visibility Wind Dir Wind Speed Gust Speed Precip Events Conditions
12:54 AM 62.1 °F 57.0 °F 84% 29.90 in 10.0 mi SSE 3.5 mph - N/A   Clear
1:54 AM 60.1 °F 55.0 °F 83% 29.89 in 10.0 mi SSE 6.9 mph - N/A   Clear
2:54 AM 57.9 °F 54.0 °F 87% 29.88 in 10.0 mi SSE 5.8 mph - N/A   Clear
3:54 AM 57.9 °F 53.1 °F 84% 29.87 in 10.0 mi SSE 5.8 mph - N/A   Clear
4:54 AM 59.0 °F 53.1 °F 81% 29.86 in 10.0 mi South 6.9 mph - N/A   Mostly Cloudy
5:54 AM 59.0 °F 53.1 °F 81% 29.85 in 10.0 mi SSE 9.2 mph - N/A   Scattered Clouds
6:54 AM 61.0 °F 53.1 °F 75% 29.85 in 10.0 mi South 5.8 mph - N/A   Overcast
7:54 AM 62.1 °F 53.1 °F 72% 29.84 in 10.0 mi South 6.9 mph - N/A   Mostly Cloudy
8:54 AM 64.9 °F 55.0 °F 70% 29.82 in 10.0 mi SSE 9.2 mph - N/A   Mostly Cloudy
9:45 AM 64.4 °F 59.0 °F 83% 29.80 in 10.0 mi South 9.2 mph - N/A   Mostly Cloudy
9:54 AM 64.0 °F 59.0 °F 84% 29.80 in 10.0 mi SSE 9.2 mph - N/A   Overcast
10:54 AM 64.0 °F 60.1 °F 87% 29.78 in 10.0 mi South 9.2 mph - N/A   Overcast
11:54 AM 64.9 °F 62.1 °F 90% 29.76 in 10.0 mi SSE 8.1 mph - 0.00 in Rain Light Rain
12:54 PM 64.9 °F 63.0 °F 93% 29.74 in 4.0 mi Calm Calm - 0.04 in Rain Light Rain
1:54 PM 66.0 °F 64.0 °F 93% 29.70 in 5.0 mi Calm Calm - 0.07 in Rain Light Rain
2:07 PM 66.2 °F 64.4 °F 94% 29.69 in 5.0 mi Calm Calm - 0.02 in Rain Rain
2:41 PM 66.2 °F 64.4 °F 94% 29.67 in 4.0 mi ENE 3.5 mph - 0.06 in Rain Light Rain
2:54 PM 66.0 °F 64.0 °F 93% 29.67 in 3.0 mi NE 4.6 mph - 0.07 in Rain Rain
3:54 PM 66.0 °F 64.9 °F 96% 29.64 in 7.0 mi East 11.5 mph - 0.06 in Rain Light Rain
4:39 PM 64.4 °F 62.6 °F 94% 29.61 in 4.0 mi East 9.2 mph - 0.06 in Rain Rain
4:49 PM 64.4 °F 62.6 °F 94% 29.61 in 4.0 mi ENE 5.8 mph - 0.07 in Rain Light Rain
4:54 PM 64.0 °F 62.1 °F 93% 29.62 in 5.0 mi ENE 6.9 mph - 0.07 in Rain Light Rain
5:06 PM 64.4 °F 62.6 °F 94% 29.61 in 6.0 mi Variable 4.6 mph - 0.01 in Rain Light Rain
5:14 PM 64.4 °F 62.6 °F 94% 29.60 in 4.0 mi East 6.9 mph - 0.02 in Rain Rain
5:17 PM 64.4 °F 62.6 °F 94% 29.60 in 2.5 mi East 6.9 mph - 0.03 in Rain Rain
5:27 PM 62.6 °F 62.6 °F 100% 29.60 in 1.5 mi East 6.9 mph - 0.08 in Rain Heavy Rain
5:44 PM 62.6 °F 62.6 °F 100% 29.60 in 2.0 mi East 6.9 mph - 0.13 in Rain Rain
5:54 PM 63.0 °F 61.0 °F 93% 29.60 in 1.8 mi ESE 9.2 mph 17.3 mph 0.16 in Rain Heavy Rain
6:13 PM 62.6 °F 62.6 °F 100% 29.58 in 2.0 mi East 9.2 mph - 0.08 in Rain Rain
6:23 PM 62.6 °F 60.8 °F 94% 29.59 in 3.0 mi ESE 9.2 mph 19.6 mph 0.11 in Rain Rain
6:36 PM 62.6 °F 60.8 °F 94% 29.58 in 5.0 mi East 8.1 mph - 0.13 in Rain Light Rain
6:44 PM 62.6 °F 60.8 °F 94% 29.58 in 6.0 mi East 5.8 mph - 0.13 in Rain Light Rain
6:54 PM 62.1 °F 61.0 °F 96% 29.59 in 10.0 mi East 3.5 mph - 0.13 in Rain Light Rain
7:28 PM 62.6 °F 60.8 °F 94% 29.54 in 8.0 mi East 12.7 mph - 0.00 in Rain Light Rain
7:54 PM 62.1 °F 60.1 °F 93% 29.55 in 10.0 mi East 4.6 mph - 0.00 in   Overcast
8:22 PM 62.6 °F 59.0 °F 88% 29.57 in 10.0 mi Calm Calm - N/A   Overcast
8:34 PM 62.6 °F 60.8 °F 94% 29.57 in 10.0 mi Calm Calm - N/A   Overcast
8:54 PM 62.1 °F 60.1 °F 93% 29.58 in 10.0 mi Calm Calm - N/A   Overcast
9:01 PM 62.6 °F 60.8 °F 94% 29.57 in 10.0 mi NW 3.5 mph - N/A   Overcast
9:54 PM 62.1 °F 60.1 °F 93% 29.56 in 10.0 mi North 3.5 mph - N/A   Overcast
10:54 PM 62.1 °F 60.1 °F 93% 29.55 in 10.0 mi NNE 3.5 mph - N/A   Overcast
11:37 PM 60.8 °F 60.8 °F 100% 29.55 in 10.0 mi North 3.5 mph - N/A   Overcast
11:54 PM 62.1 °F 60.1 °F 93% 29.55 in 10.0 mi North 3.5 mph - N/A   Overcast